Weather History for KNJM - September, 2013

Change the Weather History Date:

Friday, September 13, 2013

  Actual Average (KNKT) Record (KNKT)
Temperature  
Mean Temperature 82 °F -  
Max Temperature 89 °F 80 °F 91 °F (1998)
Min Temperature 75 °F 64 °F 59 °F (2006)
Cooling Degree Days 16    
Growing Degree Days 32 (Base 50)    
Moisture  
Dew Point 68 °F    
Average Humidity 67    
Maximum Humidity 82    
Minimum Humidity 46    
Precipitation  
Precipitation 0.00 in - - ()
Sea Level Pressure  
Sea Level Pressure 29.80 in    
Wind  
Wind Speed 6 mph (WNW)    
Max Wind Speed 10 mph    
Max Gust Speed -    
Visibility 9 miles    
Events Rain    
Averages and records for this station are not official NWS values.
T = Trace of Precipitation, MM = Missing Value Source: NWS Daily Summary

Daily Weather History Graph

Daily Weather History Graph

Search for Another Location

Airport or City:

Trip Planner

Search our weather history database for the weather conditions in past years. The results will help you decide how hot, cold, wet, or windy it might be!

Date:

Astronomy

Sep. 13, 2013 Rise Set
Actual Time 6:49 AM EDT 7:17 PM EDT
Civil Twilight 6:24 AM EDT 7:42 PM EDT
Nautical Twilight 5:54 AM EDT 8:12 PM EDT
Astronomical Twilight 5:24 AM EDT 8:42 PM EDT
Moon 2:55 PM EDT (9/13) 12:27 AM EDT (9/13)
Length of Visible Light 13h 18m
Length of Day
12h 27m
First Quarter, 61% of the Moon is Illuminated
Sep 13
First Quarter
Sep 19
Full
Sep 26
Last Quarter
Oct 4
New
Oct 11
First Quarter

Hourly Weather History & Observations

Time (EDT) Temp. Heat Index Dew Point Humidity Pressure Visibility Wind Dir Wind Speed Gust Speed Precip Events Conditions
12:57 AM 81.0 °F 84.9 °F 71.1 °F 72% 29.84 in 10.0 mi WSW 9.2 mph - N/A   Mostly Cloudy
1:57 AM 80.1 °F 83.2 °F 70.0 °F 71% 29.83 in 10.0 mi West 6.9 mph - N/A   Partly Cloudy
2:57 AM 80.1 °F 82.9 °F 69.1 °F 69% 29.81 in 10.0 mi West 8.1 mph - N/A   Clear
3:57 AM 79.0 °F - 69.1 °F 72% 29.80 in 10.0 mi WSW 8.1 mph - N/A   Mostly Cloudy
4:57 AM 78.1 °F - 68.0 °F 71% 29.78 in 10.0 mi West 4.6 mph - N/A   Mostly Cloudy
5:57 AM 77.0 °F - 66.9 °F 71% 29.79 in 10.0 mi West 4.6 mph - N/A   Partly Cloudy
6:57 AM 75.9 °F - 66.9 °F 74% 29.79 in 4.0 mi Variable 5.8 mph - 0.00 in Rain Rain
7:57 AM 75.9 °F - 70.0 °F 82% 29.80 in 7.0 mi Calm Calm - 0.00 in   Mostly Cloudy
8:57 AM 77.0 °F - 69.1 °F 76% 29.81 in 7.0 mi Variable 3.5 mph - N/A   Partly Cloudy
9:57 AM 80.1 °F 82.9 °F 69.1 °F 69% 29.81 in 8.0 mi WNW 8.1 mph - N/A   Clear
10:57 AM 81.0 °F 83.3 °F 66.9 °F 62% 29.81 in 9.0 mi NNW 5.8 mph - N/A   Mostly Cloudy
11:57 AM 82.9 °F 85.0 °F 66.0 °F 56% 29.80 in 10.0 mi NW 4.6 mph - N/A   Clear
12:57 PM 86.0 °F 88.8 °F 66.9 °F 53% 29.79 in 10.0 mi NW 6.9 mph - N/A   Scattered Clouds
1:57 PM 87.1 °F 89.2 °F 66.0 °F 49% 29.77 in 10.0 mi North 5.8 mph - N/A   Mostly Cloudy
2:57 PM 86.0 °F 87.6 °F 64.9 °F 49% 29.76 in 10.0 mi Variable 3.5 mph - N/A   Mostly Cloudy
3:57 PM 88.0 °F 89.6 °F 64.9 °F 46% 29.75 in 10.0 mi NNW 4.6 mph - N/A   Clear
4:57 PM 84.9 °F 88.8 °F 69.1 °F 59% 29.75 in 10.0 mi SW 6.9 mph - N/A   Partly Cloudy
5:57 PM 82.9 °F 87.5 °F 71.1 °F 67% 29.75 in 9.0 mi SW 6.9 mph - N/A   Partly Cloudy
6:57 PM 82.0 °F 86.3 °F 71.1 °F 69% 29.77 in 9.0 mi Calm Calm - N/A   Clear
7:57 PM 78.1 °F - 70.0 °F 76% 29.80 in 9.0 mi Calm Calm - N/A   Mostly Cloudy
8:57 PM 77.0 °F - 70.0 °F 79% 29.81 in 9.0 mi Calm Calm - N/A   Clear
9:57 PM 75.9 °F - 66.9 °F 74% 29.83 in 10.0 mi NNW 3.5 mph - N/A   Clear
10:57 PM 77.0 °F - 66.9 °F 71% 29.84 in 10.0 mi NE 8.1 mph - N/A   Clear
11:57 PM 75.9 °F - 66.0 °F 71% 29.85 in 10.0 mi NE 10.4 mph - N/A   Clear